Monday, February 25, 2013

Avoca, PA
on Thursday, April 24, 2014

Thursday
Previous Day Next Day
Daily Summary
 ActualAverageRecord
Temperature
Mean Temperature °F 52°F  
Max Temperature 57°F 63°F 87°F (1960)
Min Temperature 33°F 41°F 25°F (1930)
Degree Days
Heating Degree Days 20 13  
Month to date heating degree days 403 423  
Since 1 July heating degree days 6269 5900  
Cooling Degree Days 0 0  
Month to date cooling degree days 7 0  
Year to date cooling degree days 7 0  
Moisture
Dew Point 16°F   
Average Humidity 36    
Maximum Humidity 57    
Minimum Humidity 17    
Precipitation
Precipitation 0.00 in 0.12 in 1.50 in (1968)
Month to date precipitation 1.91 2.66  
Year to date precipitation 8.86 9.61  
Wind
Wind Speed 13 mph   
Max Wind Speed 29 mph   
Max Gust Speed 38 mph   
Visibility 10.0 miles   
Events     

Key: T is trace of precipitation, MM is missing value
Source: Averaged Metar Reports
Time(EDT)TemperatureDew PointHumidity Pressure Visibility Wind DirectionWind SpeedGust SpeedPrecipitationEvents Conditions
12:54 AM 39.0°F 25.0°F 57% 29.93 in 10.0 miles West 11.5 mph 17.3 mph N/A   Clear
1:54 AM 39.0°F 24.1°F 55% 29.93 in 10.0 miles WNW 17.3 mph 23.0 mph N/A   Clear
2:54 AM 37.0°F 21.9°F 54% 29.93 in 10.0 miles NW 15.0 mph - N/A   Clear
3:54 AM 37.0°F 19.0°F 48% 29.94 in 10.0 miles NW 17.3 mph 23.0 mph N/A   Clear
4:54 AM 35.1°F 19.0°F 52% 29.95 in 10.0 miles West 6.9 mph - N/A   Clear
5:54 AM 34.0°F 18.0°F 52% 29.97 in 10.0 miles West 8.1 mph - N/A   Clear
6:54 AM 35.1°F 18.0°F 50% 30.00 in 10.0 miles Variable 6.9 mph - N/A   Clear
7:54 AM 37.9°F 18.0°F 45% 30.02 in 10.0 miles NW 11.5 mph - N/A   Clear
8:54 AM 41.0°F 19.0°F 41% 30.03 in 10.0 miles NW 13.8 mph 23.0 mph N/A   Clear
9:54 AM 45.0°F 17.1°F 33% 30.02 in 10.0 miles NNW 16.1 mph 33.4 mph N/A   Clear
10:54 AM 48.0°F 15.1°F 27% 30.03 in 10.0 miles North 21.9 mph 34.5 mph N/A   Clear
11:54 AM 48.9°F 14.0°F 25% 30.04 in 10.0 miles NW 23.0 mph 35.7 mph N/A   Clear
12:54 PM 52.0°F 12.9°F 21% 30.01 in 10.0 miles NW 24.2 mph 34.5 mph N/A   Clear
1:54 PM 54.0°F 15.1°F 22% 30.00 in 10.0 miles NNW 20.7 mph 27.6 mph N/A   Clear
2:54 PM 54.0°F 16.0°F 22% 29.99 in 10.0 miles NW 21.9 mph 32.2 mph N/A   Clear
3:54 PM 57.0°F 14.0°F 18% 29.99 in 10.0 miles North 17.3 mph 29.9 mph N/A   Clear
4:54 PM 55.9°F 12.0°F 18% 29.98 in 10.0 miles NNW 18.4 mph 23.0 mph N/A   Clear
5:54 PM 55.0°F 10.9°F 17% 29.99 in 10.0 miles North 16.1 mph 24.2 mph N/A   Clear
6:54 PM 54.0°F 12.0°F 19% 30.01 in 10.0 miles NNW 17.3 mph 23.0 mph N/A   Clear
7:54 PM 50.0°F 10.9°F 21% 30.03 in 10.0 miles NW 13.8 mph - N/A   Clear
8:54 PM 48.0°F 10.0°F 22% 30.05 in 10.0 miles NW 9.2 mph 17.3 mph N/A   Clear
9:54 PM 45.0°F 12.9°F 27% 30.06 in 10.0 miles Variable 3.5 mph - N/A   Clear
Astronomy
Sunrise:06:09 AM (EDT) Moon Rise:03:22 AM (EDT)4/24
Sunset:07:52 PM (EDT) Moon Set:03:02 PM (EDT)4/24
Moon Phase
Apr. 24 Apr. 29 May. 06 May. 14 May. 21

Copyright © 2014 The Weather Underground, Inc.
8,